Year,Month,Day,Hour,Minute,Value (Times are PST for windspeed in km/hr)
2015,08,28,00,00,9.50
2015,08,28,00,01,10.20
2015,08,28,00,02,5.80
2015,08,28,00,03,4.90
2015,08,28,00,04,7.60
2015,08,28,00,05,7.70
2015,08,28,00,06,9.40
2015,08,28,00,07,11.90
2015,08,28,00,08,7.70
2015,08,28,00,09,7.00
2015,08,28,00,10,3.60
2015,08,28,00,11,3.40
2015,08,28,00,12,5.50
2015,08,28,00,13,9.50
2015,08,28,00,14,6.50
2015,08,28,00,15,8.30
2015,08,28,00,16,8.30
2015,08,28,00,17,4.00
2015,08,28,00,18,9.90
2015,08,28,00,19,7.50
2015,08,28,00,20,7.10
2015,08,28,00,21,9.40
2015,08,28,00,22,5.00
2015,08,28,00,23,4.10
2015,08,28,00,24,2.30
2015,08,28,00,25,0.70
2015,08,28,00,26,0.10
2015,08,28,00,27,1.30
2015,08,28,00,28,1.10
2015,08,28,00,29,0.40
2015,08,28,00,30,2.00
2015,08,28,00,31,0.40
2015,08,28,00,32,0.00
2015,08,28,00,33,1.10
2015,08,28,00,34,2.90
2015,08,28,00,35,5.20
2015,08,28,00,36,1.80
2015,08,28,00,37,0.10
2015,08,28,00,38,0.00
2015,08,28,00,39,2.60
2015,08,28,00,40,3.20
2015,08,28,00,41,4.20
2015,08,28,00,42,3.80
2015,08,28,00,43,4.50
2015,08,28,00,44,2.00
2015,08,28,00,45,4.00
2015,08,28,00,46,3.10
2015,08,28,00,47,3.00
2015,08,28,00,48,2.80
2015,08,28,00,49,2.00
2015,08,28,00,50,3.20
2015,08,28,00,51,2.40
2015,08,28,00,52,2.10
2015,08,28,00,53,2.30
2015,08,28,00,54,0.80
2015,08,28,00,55,3.60
2015,08,28,00,56,2.10
2015,08,28,00,57,0.00
2015,08,28,00,58,0.20
2015,08,28,00,59,0.40
2015,08,28,01,00,1.20
2015,08,28,01,01,0.70
2015,08,28,01,02,0.20
2015,08,28,01,03,0.00
2015,08,28,01,04,0.00
2015,08,28,01,05,0.20
2015,08,28,01,06,0.00
2015,08,28,01,07,0.10
2015,08,28,01,08,0.00
2015,08,28,01,09,0.00
2015,08,28,01,10,0.00
2015,08,28,01,11,0.00
2015,08,28,01,12,1.50
2015,08,28,01,13,0.90
2015,08,28,01,14,0.10
2015,08,28,01,15,0.40
2015,08,28,01,16,0.00
2015,08,28,01,17,0.00
2015,08,28,01,18,2.80
2015,08,28,01,19,5.40
2015,08,28,01,20,3.40
2015,08,28,01,21,2.30
2015,08,28,01,22,5.00
2015,08,28,01,23,1.00
2015,08,28,01,24,0.50
2015,08,28,01,25,0.00
2015,08,28,01,26,0.20
2015,08,28,01,27,0.10
2015,08,28,01,28,0.50
2015,08,28,01,29,3.80
2015,08,28,01,30,1.60
2015,08,28,01,31,1.70
2015,08,28,01,32,1.80
2015,08,28,01,33,2.60
2015,08,28,01,34,3.30
2015,08,28,01,35,3.00
2015,08,28,01,36,1.30
2015,08,28,01,37,1.90
2015,08,28,01,38,1.50
2015,08,28,01,39,2.70
2015,08,28,01,40,2.50
2015,08,28,01,41,1.90
2015,08,28,01,42,4.10
2015,08,28,01,43,2.00
2015,08,28,01,44,2.00
2015,08,28,01,45,1.20
2015,08,28,01,46,0.40
2015,08,28,01,47,0.10
2015,08,28,01,48,1.20
2015,08,28,01,49,3.40
2015,08,28,01,50,2.50
2015,08,28,01,51,3.30
2015,08,28,01,52,0.60
2015,08,28,01,53,1.60
2015,08,28,01,54,2.20
2015,08,28,01,55,3.40
2015,08,28,01,56,5.60
2015,08,28,01,57,1.40
2015,08,28,01,58,0.10
2015,08,28,01,59,0.00
2015,08,28,02,00,0.00
2015,08,28,02,01,0.20
2015,08,28,02,02,3.20
2015,08,28,02,03,3.90
2015,08,28,02,04,3.30
2015,08,28,02,05,2.00
2015,08,28,02,06,1.20
2015,08,28,02,07,1.70
2015,08,28,02,08,0.90
2015,08,28,02,09,1.80
2015,08,28,02,10,1.80
2015,08,28,02,11,1.70
2015,08,28,02,12,3.90
2015,08,28,02,13,2.50
2015,08,28,02,14,1.00
2015,08,28,02,15,1.80
2015,08,28,02,16,1.50
2015,08,28,02,17,2.20
2015,08,28,02,18,1.50
2015,08,28,02,19,1.80
2015,08,28,02,20,0.20
2015,08,28,02,21,0.00
2015,08,28,02,22,0.50
2015,08,28,02,23,1.50
2015,08,28,02,24,2.90
2015,08,28,02,25,0.50
2015,08,28,02,26,1.20
2015,08,28,02,27,2.20
2015,08,28,02,28,0.20
2015,08,28,02,29,1.80
2015,08,28,02,30,1.20
2015,08,28,02,31,0.30
2015,08,28,02,32,0.10
2015,08,28,02,33,0.70
2015,08,28,02,34,1.30
2015,08,28,02,35,0.00
2015,08,28,02,36,0.50
2015,08,28,02,37,2.40
2015,08,28,02,38,1.80
2015,08,28,02,39,1.00
2015,08,28,02,40,3.80
2015,08,28,02,41,0.70
2015,08,28,02,42,0.10
2015,08,28,02,43,1.80
2015,08,28,02,44,1.50
2015,08,28,02,45,2.90
2015,08,28,02,46,3.60
2015,08,28,02,47,0.30
2015,08,28,02,48,1.30
2015,08,28,02,49,1.00
2015,08,28,02,50,1.20
2015,08,28,02,51,0.00
2015,08,28,02,52,0.00
2015,08,28,02,53,0.00
2015,08,28,02,54,0.00
2015,08,28,02,55,0.10
2015,08,28,02,56,0.00
2015,08,28,02,57,0.00
2015,08,28,02,58,0.00
2015,08,28,02,59,0.00
2015,08,28,03,00,0.00
2015,08,28,03,01,1.50
2015,08,28,03,02,1.80
2015,08,28,03,03,0.00
2015,08,28,03,04,0.00
2015,08,28,03,05,0.00
2015,08,28,03,06,0.00
2015,08,28,03,07,0.00
2015,08,28,03,08,0.00
2015,08,28,03,09,0.00
2015,08,28,03,10,0.00
2015,08,28,03,11,0.40
2015,08,28,03,12,3.00
2015,08,28,03,13,0.30
2015,08,28,03,14,3.80
2015,08,28,03,15,1.00
2015,08,28,03,16,2.40
2015,08,28,03,17,1.30
2015,08,28,03,18,2.60
2015,08,28,03,19,2.70
2015,08,28,03,20,4.70
2015,08,28,03,21,4.80
2015,08,28,03,22,7.60
2015,08,28,03,23,4.60
2015,08,28,03,24,5.10
2015,08,28,03,25,5.50
2015,08,28,03,26,2.20
2015,08,28,03,27,3.10
2015,08,28,03,28,1.20
2015,08,28,03,29,1.60
2015,08,28,03,30,2.50
2015,08,28,03,31,0.10
2015,08,28,03,32,0.40
2015,08,28,03,33,0.60
2015,08,28,03,34,2.00
2015,08,28,03,35,2.80
2015,08,28,03,36,6.10
2015,08,28,03,37,9.90
2015,08,28,03,38,6.80
2015,08,28,03,39,8.30
2015,08,28,03,40,7.50
2015,08,28,03,41,9.30
2015,08,28,03,42,6.20
2015,08,28,03,43,6.00
2015,08,28,03,44,4.10
2015,08,28,03,45,6.00
2015,08,28,03,46,6.20
2015,08,28,03,47,4.50
2015,08,28,03,48,3.80
2015,08,28,03,49,1.20
2015,08,28,03,50,2.90
2015,08,28,03,51,6.00
2015,08,28,03,52,5.60
2015,08,28,03,53,5.50
2015,08,28,03,54,6.60
2015,08,28,03,55,5.80
2015,08,28,03,56,5.30
2015,08,28,03,57,3.70
2015,08,28,03,58,7.80
2015,08,28,03,59,7.40
2015,08,28,04,00,8.10
2015,08,28,04,01,3.80
2015,08,28,04,02,1.60
2015,08,28,04,03,5.90
2015,08,28,04,04,5.70
2015,08,28,04,05,7.00
2015,08,28,04,06,6.40
2015,08,28,04,07,6.00
2015,08,28,04,08,3.50
2015,08,28,04,09,4.10
2015,08,28,04,10,0.00
2015,08,28,04,11,2.00
2015,08,28,04,12,0.90
2015,08,28,04,13,3.90
2015,08,28,04,14,0.40
2015,08,28,04,15,0.00
2015,08,28,04,16,0.00
2015,08,28,04,17,0.00
2015,08,28,04,18,0.00
2015,08,28,04,19,0.20
2015,08,28,04,20,0.00
2015,08,28,04,21,0.00
2015,08,28,04,22,0.10
2015,08,28,04,23,0.00
2015,08,28,04,24,0.00
2015,08,28,04,25,0.10
2015,08,28,04,26,0.00
2015,08,28,04,27,0.00
2015,08,28,04,28,0.00
2015,08,28,04,29,0.00
2015,08,28,04,30,0.00
2015,08,28,04,31,0.00
2015,08,28,04,32,0.00
2015,08,28,04,33,0.00
2015,08,28,04,34,0.00
2015,08,28,04,35,0.00
2015,08,28,04,36,0.00
2015,08,28,04,37,0.00
2015,08,28,04,38,0.00
2015,08,28,04,39,0.00
2015,08,28,04,40,0.00
2015,08,28,04,41,0.00
2015,08,28,04,42,0.00
2015,08,28,04,43,0.00
2015,08,28,04,44,0.00
2015,08,28,04,45,0.00
2015,08,28,04,46,0.00
2015,08,28,04,47,0.00
2015,08,28,04,48,0.00
2015,08,28,04,49,0.00
2015,08,28,04,50,0.00
2015,08,28,04,51,0.00
2015,08,28,04,52,0.00
2015,08,28,04,53,0.00
2015,08,28,04,54,0.00
2015,08,28,04,55,0.00
2015,08,28,04,56,0.00
2015,08,28,04,57,0.00
2015,08,28,04,58,0.00
2015,08,28,04,59,0.00
2015,08,28,05,00,0.00
2015,08,28,05,01,0.00
2015,08,28,05,02,0.00
2015,08,28,05,03,0.00
2015,08,28,05,04,0.00
2015,08,28,05,05,0.00
2015,08,28,05,06,0.00
2015,08,28,05,07,0.00
2015,08,28,05,08,4.20
2015,08,28,05,09,2.40
2015,08,28,05,10,1.20
2015,08,28,05,11,0.10
2015,08,28,05,12,0.00
2015,08,28,05,13,0.70
2015,08,28,05,14,0.20
2015,08,28,05,15,6.40
2015,08,28,05,16,3.00
2015,08,28,05,17,2.20
2015,08,28,05,18,0.80
2015,08,28,05,19,1.30
2015,08,28,05,20,0.10
2015,08,28,05,21,0.70
2015,08,28,05,22,0.00
2015,08,28,05,23,1.90
2015,08,28,05,24,4.60
2015,08,28,05,25,2.00
2015,08,28,05,26,2.20
2015,08,28,05,27,1.70
2015,08,28,05,28,1.40
2015,08,28,05,29,1.50
2015,08,28,05,30,1.90
2015,08,28,05,31,2.80
2015,08,28,05,32,2.00
2015,08,28,05,33,0.30
2015,08,28,05,34,0.70
2015,08,28,05,35,4.30
2015,08,28,05,36,0.60
2015,08,28,05,37,0.00
2015,08,28,05,38,0.40
2015,08,28,05,39,1.40
2015,08,28,05,40,0.00
2015,08,28,05,41,0.30
2015,08,28,05,42,0.00
2015,08,28,05,43,0.00
2015,08,28,05,44,0.00
2015,08,28,05,45,2.30
2015,08,28,05,46,2.50
2015,08,28,05,47,0.70
2015,08,28,05,48,2.60
2015,08,28,05,49,3.80
2015,08,28,05,50,4.00
2015,08,28,05,51,2.40
2015,08,28,05,52,0.10
2015,08,28,05,53,0.40
2015,08,28,05,54,1.30
2015,08,28,05,55,0.00
2015,08,28,05,56,0.00
2015,08,28,05,57,0.00
2015,08,28,05,58,0.00
2015,08,28,05,59,0.20
2015,08,28,06,00,5.70
2015,08,28,06,01,5.90
2015,08,28,06,02,1.80
2015,08,28,06,03,5.40
2015,08,28,06,04,4.70
2015,08,28,06,05,4.40
2015,08,28,06,06,0.90
2015,08,28,06,07,1.30
2015,08,28,06,08,4.40
2015,08,28,06,09,2.80
2015,08,28,06,10,1.10
2015,08,28,06,11,3.40
2015,08,28,06,12,2.90
2015,08,28,06,13,2.70
2015,08,28,06,14,0.40
2015,08,28,06,15,2.70
2015,08,28,06,16,4.80
2015,08,28,06,17,4.10
2015,08,28,06,18,4.40
2015,08,28,06,19,4.10
2015,08,28,06,20,5.40
2015,08,28,06,21,5.10
2015,08,28,06,22,2.20
2015,08,28,06,23,3.10
2015,08,28,06,24,3.20
2015,08,28,06,25,4.00
2015,08,28,06,26,2.60
2015,08,28,06,27,3.10
2015,08,28,06,28,5.10
2015,08,28,06,29,4.10
2015,08,28,06,30,3.60
2015,08,28,06,31,3.70
2015,08,28,06,32,0.70
2015,08,28,06,33,1.30
2015,08,28,06,34,0.50
2015,08,28,06,35,1.50
2015,08,28,06,36,0.00
2015,08,28,06,37,0.00
2015,08,28,06,38,0.00
2015,08,28,06,39,0.00
2015,08,28,06,40,0.50
2015,08,28,06,41,1.80
2015,08,28,06,42,0.80
2015,08,28,06,43,0.00
2015,08,28,06,44,0.00
2015,08,28,06,45,0.00
2015,08,28,06,46,0.10
2015,08,28,06,47,0.50
2015,08,28,06,48,0.80
2015,08,28,06,49,0.10
2015,08,28,06,50,0.30
2015,08,28,06,51,0.00
2015,08,28,06,52,0.00
2015,08,28,06,53,0.00
2015,08,28,06,54,0.10
2015,08,28,06,55,0.00
2015,08,28,06,56,0.00
2015,08,28,06,57,0.00
2015,08,28,06,58,0.20
2015,08,28,06,59,0.00
2015,08,28,07,00,0.40
2015,08,28,07,01,2.50
2015,08,28,07,02,3.20
2015,08,28,07,03,0.70
2015,08,28,07,04,0.40
2015,08,28,07,05,1.70
2015,08,28,07,06,0.50
2015,08,28,07,07,0.10
2015,08,28,07,08,0.10
2015,08,28,07,09,0.40
2015,08,28,07,10,1.40
2015,08,28,07,11,0.00
2015,08,28,07,12,0.00
2015,08,28,07,13,0.00
2015,08,28,07,14,0.00
2015,08,28,07,15,0.00
2015,08,28,07,16,0.00
2015,08,28,07,17,0.00
2015,08,28,07,18,0.00
2015,08,28,07,19,0.00
2015,08,28,07,20,0.10
2015,08,28,07,21,0.70
2015,08,28,07,22,1.30
2015,08,28,07,23,1.70
2015,08,28,07,24,3.70
2015,08,28,07,25,2.80
2015,08,28,07,26,3.60
2015,08,28,07,27,3.30
2015,08,28,07,28,5.00
2015,08,28,07,29,2.10
2015,08,28,07,30,1.30
2015,08,28,07,31,1.00
2015,08,28,07,32,0.80
2015,08,28,07,33,0.00
2015,08,28,07,34,1.90
2015,08,28,07,35,0.10
2015,08,28,07,36,0.00
2015,08,28,07,37,0.00
2015,08,28,07,38,0.00
2015,08,28,07,39,0.00
2015,08,28,07,40,0.00
2015,08,28,07,41,0.00
2015,08,28,07,42,0.00
2015,08,28,07,43,0.00
2015,08,28,07,44,0.00
2015,08,28,07,45,2.00
2015,08,28,07,46,3.50
2015,08,28,07,47,3.90
2015,08,28,07,48,3.80
2015,08,28,07,49,3.10
2015,08,28,07,50,0.40
2015,08,28,07,51,0.20
2015,08,28,07,52,0.00
2015,08,28,07,53,0.00
2015,08,28,07,54,2.30
2015,08,28,07,55,1.10
2015,08,28,07,56,2.20
2015,08,28,07,57,2.00
2015,08,28,07,58,0.70
2015,08,28,07,59,2.70
2015,08,28,08,00,1.90
2015,08,28,08,01,1.10
2015,08,28,08,02,0.00
2015,08,28,08,03,0.00
2015,08,28,08,04,0.00
2015,08,28,08,05,0.00
2015,08,28,08,06,0.00
2015,08,28,08,07,0.00
2015,08,28,08,08,0.00
2015,08,28,08,09,0.00
2015,08,28,08,10,0.00
2015,08,28,08,11,0.00
2015,08,28,08,12,0.00
2015,08,28,08,13,0.00
2015,08,28,08,14,0.00
2015,08,28,08,15,0.00
2015,08,28,08,16,0.00
2015,08,28,08,17,0.00
2015,08,28,08,18,0.00
2015,08,28,08,19,0.00
2015,08,28,08,20,0.00
2015,08,28,08,21,0.00
2015,08,28,08,22,1.70
2015,08,28,08,23,3.00
2015,08,28,08,24,0.10
2015,08,28,08,25,0.00
2015,08,28,08,26,2.30
2015,08,28,08,27,4.80
2015,08,28,08,28,4.80
2015,08,28,08,29,5.30
2015,08,28,08,30,3.70
2015,08,28,08,31,0.60
2015,08,28,08,32,2.70
2015,08,28,08,33,2.10
2015,08,28,08,34,4.40
2015,08,28,08,35,1.80
2015,08,28,08,36,4.20
2015,08,28,08,37,2.50
2015,08,28,08,38,2.00
2015,08,28,08,39,5.30
2015,08,28,08,40,3.40
2015,08,28,08,41,4.70
2015,08,28,08,42,5.00
2015,08,28,08,43,7.00
2015,08,28,08,44,6.00
2015,08,28,08,45,6.70
2015,08,28,08,46,7.70
2015,08,28,08,47,4.30
2015,08,28,08,48,5.10
2015,08,28,08,49,5.10
2015,08,28,08,50,8.30
2015,08,28,08,51,6.30
2015,08,28,08,52,8.60
2015,08,28,08,53,8.10
2015,08,28,08,54,7.00
2015,08,28,08,55,9.70
2015,08,28,08,56,4.50
2015,08,28,08,57,5.60
2015,08,28,08,58,6.20
2015,08,28,08,59,5.60
2015,08,28,09,00,3.90
2015,08,28,09,01,4.00
2015,08,28,09,02,6.50
2015,08,28,09,03,8.40
2015,08,28,09,04,6.10
2015,08,28,09,05,3.20
2015,08,28,09,06,0.80
2015,08,28,09,07,7.70
2015,08,28,09,08,7.80
2015,08,28,09,09,8.90
2015,08,28,09,10,5.40
2015,08,28,09,11,8.30
2015,08,28,09,12,4.50
2015,08,28,09,13,5.40
2015,08,28,09,14,3.10
2015,08,28,09,15,0.60
2015,08,28,09,16,4.20
2015,08,28,09,17,6.80
2015,08,28,09,18,5.20
2015,08,28,09,19,6.60
2015,08,28,09,20,8.90
2015,08,28,09,21,7.60
2015,08,28,09,22,4.10
2015,08,28,09,23,2.60
2015,08,28,09,24,2.80
2015,08,28,09,25,7.80
2015,08,28,09,26,2.60
2015,08,28,09,27,6.30
2015,08,28,09,28,5.30
2015,08,28,09,29,2.90
2015,08,28,09,30,5.70
2015,08,28,09,31,5.60
2015,08,28,09,32,5.30
2015,08,28,09,33,6.60
2015,08,28,09,34,8.00
2015,08,28,09,35,8.80
2015,08,28,09,36,5.20
2015,08,28,09,37,4.00
2015,08,28,09,38,4.90
2015,08,28,09,39,8.40
2015,08,28,09,40,7.00
2015,08,28,09,41,8.30
2015,08,28,09,42,5.40
2015,08,28,09,43,5.60
2015,08,28,09,44,2.80
2015,08,28,09,45,8.70
2015,08,28,09,46,8.60
2015,08,28,09,47,7.70
2015,08,28,09,48,4.80
2015,08,28,09,49,8.60
2015,08,28,09,50,2.80
2015,08,28,09,51,2.40
2015,08,28,09,52,4.40
2015,08,28,09,53,4.50
2015,08,28,09,54,5.00
2015,08,28,09,55,5.30
2015,08,28,09,56,7.60
2015,08,28,09,57,7.30
2015,08,28,09,58,11.90
2015,08,28,09,59,5.30
2015,08,28,10,00,4.50
2015,08,28,10,01,4.80
2015,08,28,10,02,8.00
2015,08,28,10,03,6.10
2015,08,28,10,04,7.30
2015,08,28,10,05,12.60
2015,08,28,10,06,7.10
2015,08,28,10,07,5.80
2015,08,28,10,08,4.80
2015,08,28,10,09,3.50
2015,08,28,10,10,3.20
2015,08,28,10,11,3.20
2015,08,28,10,12,5.10
2015,08,28,10,13,6.50
2015,08,28,10,14,5.00
2015,08,28,10,15,3.10
2015,08,28,10,16,5.00
2015,08,28,10,17,6.20
2015,08,28,10,18,6.60
2015,08,28,10,19,5.50
2015,08,28,10,20,2.40
2015,08,28,10,21,8.00
2015,08,28,10,22,6.10
2015,08,28,10,23,8.30
2015,08,28,10,24,2.00
2015,08,28,10,25,3.50
2015,08,28,10,26,2.80
2015,08,28,10,27,2.00
2015,08,28,10,28,2.60
2015,08,28,10,29,2.70
2015,08,28,10,30,3.90
2015,08,28,10,31,3.10
2015,08,28,10,32,5.30
2015,08,28,10,33,8.50
2015,08,28,10,34,1.50
2015,08,28,10,35,7.50
2015,08,28,10,36,7.50
2015,08,28,10,37,4.30
2015,08,28,10,38,0.60
2015,08,28,10,39,7.40
2015,08,28,10,40,7.80
2015,08,28,10,41,8.70
2015,08,28,10,42,9.40
2015,08,28,10,43,7.50
2015,08,28,10,44,7.20
2015,08,28,10,45,8.40
2015,08,28,10,46,5.70
2015,08,28,10,47,6.30
2015,08,28,10,48,8.60
2015,08,28,10,49,7.60
2015,08,28,10,50,2.90
2015,08,28,10,51,2.40
2015,08,28,10,52,3.80
2015,08,28,10,53,1.80
2015,08,28,10,54,1.70
2015,08,28,10,55,5.10
2015,08,28,10,56,4.10
2015,08,28,10,57,7.60
2015,08,28,10,58,7.90
2015,08,28,10,59,4.30
2015,08,28,11,00,1.70
2015,08,28,11,01,3.80
2015,08,28,11,02,3.20
2015,08,28,11,03,6.70
2015,08,28,11,04,8.00
2015,08,28,11,05,6.40
2015,08,28,11,06,4.70
2015,08,28,11,07,0.50
2015,08,28,11,08,0.60
2015,08,28,11,09,3.10
2015,08,28,11,10,1.80
2015,08,28,11,11,1.40
2015,08,28,11,12,0.10
2015,08,28,11,13,3.80
2015,08,28,11,14,1.20
2015,08,28,11,15,0.70
2015,08,28,11,16,2.70
2015,08,28,11,17,7.10
2015,08,28,11,18,6.20
2015,08,28,11,19,6.50
2015,08,28,11,20,5.10
2015,08,28,11,21,3.40
2015,08,28,11,22,1.80
2015,08,28,11,23,3.90
2015,08,28,11,24,2.90
2015,08,28,11,25,1.40
2015,08,28,11,26,2.90
2015,08,28,11,27,4.80
2015,08,28,11,28,5.30
2015,08,28,11,29,2.90
2015,08,28,11,30,6.30
2015,08,28,11,31,4.50
2015,08,28,11,32,4.40
2015,08,28,11,33,0.10
2015,08,28,11,34,1.50
2015,08,28,11,35,2.10
2015,08,28,11,36,3.40
2015,08,28,11,37,4.20
2015,08,28,11,38,4.50
2015,08,28,11,39,3.10
2015,08,28,11,40,5.30
2015,08,28,11,41,1.80
2015,08,28,11,42,3.20
2015,08,28,11,43,6.10
2015,08,28,11,44,2.20
2015,08,28,11,45,0.10
2015,08,28,11,46,1.00
2015,08,28,11,47,0.10
2015,08,28,11,48,2.10
2015,08,28,11,49,2.70
2015,08,28,11,50,7.30
2015,08,28,11,51,5.00
2015,08,28,11,52,5.60
2015,08,28,11,53,2.00
2015,08,28,11,54,2.60
2015,08,28,11,55,4.30
2015,08,28,11,56,2.40
2015,08,28,11,57,4.50
2015,08,28,11,58,8.00
2015,08,28,11,59,6.00
2015,08,28,12,00,4.10
2015,08,28,12,01,2.00
2015,08,28,12,02,4.20
2015,08,28,12,03,6.70
2015,08,28,12,04,6.40
2015,08,28,12,05,5.00
2015,08,28,12,06,1.70
2015,08,28,12,07,5.30
2015,08,28,12,08,4.80
2015,08,28,12,09,11.20
2015,08,28,12,10,8.70
2015,08,28,12,11,6.20
2015,08,28,12,12,3.90
2015,08,28,12,13,8.70
2015,08,28,12,14,5.50
2015,08,28,12,15,4.80
2015,08,28,12,16,4.10
2015,08,28,12,17,6.40
2015,08,28,12,18,3.90
2015,08,28,12,19,6.70
2015,08,28,12,20,3.10
2015,08,28,12,21,4.00
2015,08,28,12,22,7.60
2015,08,28,12,23,9.00
2015,08,28,12,24,4.60
2015,08,28,12,25,4.50
2015,08,28,12,26,2.30
2015,08,28,12,27,4.10
2015,08,28,12,28,7.50
2015,08,28,12,29,3.50
2015,08,28,12,30,3.10
2015,08,28,12,31,5.40
2015,08,28,12,32,7.70
2015,08,28,12,33,12.00
2015,08,28,12,34,10.60
2015,08,28,12,35,9.00
2015,08,28,12,36,7.40
2015,08,28,12,37,5.00
2015,08,28,12,38,2.70
2015,08,28,12,39,5.10
2015,08,28,12,40,4.30
2015,08,28,12,41,7.50
2015,08,28,12,42,9.70
2015,08,28,12,43,9.90
2015,08,28,12,44,10.00
2015,08,28,12,45,6.10
2015,08,28,12,46,10.50
2015,08,28,12,47,12.00
2015,08,28,12,48,12.40
2015,08,28,12,49,13.80
2015,08,28,12,50,10.20
2015,08,28,12,51,10.20
2015,08,28,12,52,4.60
2015,08,28,12,53,5.40
2015,08,28,12,54,9.70
2015,08,28,12,55,11.00
2015,08,28,12,56,11.50
2015,08,28,12,57,12.60
2015,08,28,12,58,11.60
2015,08,28,12,59,10.50
2015,08,28,13,00,17.40
2015,08,28,13,01,11.10
2015,08,28,13,02,7.80
2015,08,28,13,03,3.80
2015,08,28,13,04,12.10
2015,08,28,13,05,9.40
2015,08,28,13,06,7.30
2015,08,28,13,07,7.20
2015,08,28,13,08,4.10
2015,08,28,13,09,8.30
2015,08,28,13,10,13.90
2015,08,28,13,11,11.90
2015,08,28,13,12,14.10
2015,08,28,13,13,7.50
2015,08,28,13,14,9.70
2015,08,28,13,15,6.70
2015,08,28,13,16,7.80
2015,08,28,13,17,10.80
2015,08,28,13,18,14.60
2015,08,28,13,19,14.40
2015,08,28,13,20,11.50
2015,08,28,13,21,11.90
2015,08,28,13,22,7.10
2015,08,28,13,23,7.00
2015,08,28,13,24,11.50
2015,08,28,13,25,6.70
2015,08,28,13,26,11.50
2015,08,28,13,27,12.90
2015,08,28,13,28,17.00
2015,08,28,13,29,14.10
2015,08,28,13,30,14.40
2015,08,28,13,31,10.50
2015,08,28,13,32,8.40
2015,08,28,13,33,9.70
2015,08,28,13,34,8.50
2015,08,28,13,35,7.50
2015,08,28,13,36,4.40
2015,08,28,13,37,8.60
2015,08,28,13,38,12.00
2015,08,28,13,39,15.10
2015,08,28,13,40,6.90
2015,08,28,13,41,10.70
2015,08,28,13,42,8.50
2015,08,28,13,43,7.30
2015,08,28,13,44,8.00
2015,08,28,13,45,8.80
2015,08,28,13,46,6.40
2015,08,28,13,47,3.90
2015,08,28,13,48,4.10
2015,08,28,13,49,6.50
2015,08,28,13,50,8.70
2015,08,28,13,51,6.10
2015,08,28,13,52,11.20
2015,08,28,13,53,11.10
2015,08,28,13,54,6.10
2015,08,28,13,55,5.20
2015,08,28,13,56,2.60
2015,08,28,13,57,2.50
2015,08,28,13,58,4.90
2015,08,28,13,59,8.00
2015,08,28,14,00,4.20
2015,08,28,14,01,7.40
2015,08,28,14,02,7.10
2015,08,28,14,03,5.90
2015,08,28,14,04,8.20
2015,08,28,14,05,6.60
2015,08,28,14,06,3.50
2015,08,28,14,07,10.40
2015,08,28,14,08,8.30
2015,08,28,14,09,5.20
2015,08,28,14,10,3.10
2015,08,28,14,11,7.80
2015,08,28,14,12,12.20
2015,08,28,14,13,3.10
2015,08,28,14,14,0.50
2015,08,28,14,15,2.90
2015,08,28,14,16,6.30
2015,08,28,14,17,4.70
2015,08,28,14,18,1.70
2015,08,28,14,19,5.50
2015,08,28,14,20,8.20
2015,08,28,14,21,3.60
2015,08,28,14,22,6.40
2015,08,28,14,23,5.40
2015,08,28,14,24,3.40
2015,08,28,14,25,5.00
2015,08,28,14,26,6.70
2015,08,28,14,27,6.60
2015,08,28,14,28,8.50
2015,08,28,14,29,2.70
2015,08,28,14,30,1.80
2015,08,28,14,31,5.00
2015,08,28,14,32,2.90
2015,08,28,14,33,5.00
2015,08,28,14,34,5.90
2015,08,28,14,35,8.30
2015,08,28,14,36,10.50
2015,08,28,14,37,5.60
2015,08,28,14,38,5.20
2015,08,28,14,39,6.40
2015,08,28,14,40,9.70
2015,08,28,14,41,8.60
2015,08,28,14,42,4.80
2015,08,28,14,43,10.20
2015,08,28,14,44,7.90
2015,08,28,14,45,7.50
2015,08,28,14,46,11.40
2015,08,28,14,47,11.10
2015,08,28,14,48,5.30
2015,08,28,14,49,6.10
2015,08,28,14,50,6.60
2015,08,28,14,51,6.60
2015,08,28,14,52,8.00
2015,08,28,14,53,4.60
2015,08,28,14,54,8.90
2015,08,28,14,55,9.80
2015,08,28,14,56,12.10
2015,08,28,14,57,9.30
2015,08,28,14,58,7.40
2015,08,28,14,59,10.00
2015,08,28,15,00,7.20
2015,08,28,15,01,8.50
2015,08,28,15,02,11.50
2015,08,28,15,03,10.50
2015,08,28,15,04,10.90
2015,08,28,15,05,10.20
2015,08,28,15,06,15.10
2015,08,28,15,07,10.90
2015,08,28,15,08,10.60
2015,08,28,15,09,15.10
2015,08,28,15,10,10.40
2015,08,28,15,11,10.40
2015,08,28,15,12,8.30
2015,08,28,15,13,9.10
2015,08,28,15,14,6.20
2015,08,28,15,15,5.40
2015,08,28,15,16,5.90
2015,08,28,15,17,6.30
2015,08,28,15,18,3.70
2015,08,28,15,19,4.50
2015,08,28,15,20,2.30
2015,08,28,15,21,8.30
2015,08,28,15,22,5.10
2015,08,28,15,23,7.80
2015,08,28,15,24,10.90
2015,08,28,15,25,10.80
2015,08,28,15,26,9.90
2015,08,28,15,27,14.00
2015,08,28,15,28,13.50
2015,08,28,15,29,9.00
2015,08,28,15,30,5.60
2015,08,28,15,31,8.70
2015,08,28,15,32,3.50
2015,08,28,15,33,12.60
2015,08,28,15,34,11.30
2015,08,28,15,35,15.30
2015,08,28,15,36,11.90
2015,08,28,15,37,8.30
2015,08,28,15,38,12.30
2015,08,28,15,39,10.50
2015,08,28,15,40,12.80
2015,08,28,15,41,11.60
2015,08,28,15,42,10.00
2015,08,28,15,43,10.30
2015,08,28,15,44,6.40
2015,08,28,15,45,4.90
2015,08,28,15,46,8.10
2015,08,28,15,47,9.70
2015,08,28,15,48,4.60
2015,08,28,15,49,9.10
2015,08,28,15,50,5.70
2015,08,28,15,51,11.00
2015,08,28,15,52,10.60
2015,08,28,15,53,5.00
2015,08,28,15,54,4.70
2015,08,28,15,55,11.30
2015,08,28,15,56,13.80
2015,08,28,15,57,9.00
2015,08,28,15,58,6.40
2015,08,28,15,59,8.10
2015,08,28,16,00,8.90
2015,08,28,16,01,9.00
2015,08,28,16,02,4.20
2015,08,28,16,03,5.60
2015,08,28,16,04,6.50
2015,08,28,16,05,5.20
2015,08,28,16,06,7.70
2015,08,28,16,07,4.80
2015,08,28,16,08,9.70
2015,08,28,16,09,9.20
2015,08,28,16,10,11.30
2015,08,28,16,11,9.00
2015,08,28,16,12,8.30
2015,08,28,16,13,14.60
2015,08,28,16,14,13.70
2015,08,28,16,15,11.90
2015,08,28,16,16,11.00
2015,08,28,16,17,11.10
2015,08,28,16,18,11.30
2015,08,28,16,19,11.40
2015,08,28,16,20,10.80
2015,08,28,16,21,9.50
2015,08,28,16,22,10.30
2015,08,28,16,23,5.70
2015,08,28,16,24,6.10
2015,08,28,16,25,5.60
2015,08,28,16,26,5.30
2015,08,28,16,27,5.60
2015,08,28,16,28,6.90
2015,08,28,16,29,4.80
2015,08,28,16,30,4.50
2015,08,28,16,31,7.10
2015,08,28,16,32,6.70
2015,08,28,16,33,6.60
2015,08,28,16,34,5.40
2015,08,28,16,35,3.60
2015,08,28,16,36,2.90
2015,08,28,16,37,5.80
2015,08,28,16,38,5.40
2015,08,28,16,39,5.00
2015,08,28,16,40,4.40
2015,08,28,16,41,4.80
2015,08,28,16,42,3.00
2015,08,28,16,43,6.40
2015,08,28,16,44,4.10
2015,08,28,16,45,2.00
2015,08,28,16,46,2.50
2015,08,28,16,47,3.10
2015,08,28,16,48,6.10
2015,08,28,16,49,2.90
2015,08,28,16,50,0.20
2015,08,28,16,51,0.90
2015,08,28,16,52,5.60
2015,08,28,16,53,2.70
2015,08,28,16,54,4.20
2015,08,28,16,55,2.90
2015,08,28,16,56,5.80
2015,08,28,16,57,3.40
2015,08,28,16,58,4.60
2015,08,28,16,59,7.80
2015,08,28,17,00,7.00
2015,08,28,17,01,0.90
2015,08,28,17,02,1.30
2015,08,28,17,03,2.60
2015,08,28,17,04,2.50
2015,08,28,17,05,5.60
2015,08,28,17,06,3.60
2015,08,28,17,07,2.00
2015,08,28,17,08,1.10
2015,08,28,17,09,2.10
2015,08,28,17,10,6.30
2015,08,28,17,11,1.80
2015,08,28,17,12,2.30
2015,08,28,17,13,2.50
2015,08,28,17,14,3.70
2015,08,28,17,15,5.40
2015,08,28,17,16,0.90
2015,08,28,17,17,0.90
2015,08,28,17,18,0.00
2015,08,28,17,19,0.80
2015,08,28,17,20,0.60
2015,08,28,17,21,1.30
2015,08,28,17,22,5.20
2015,08,28,17,23,4.30
2015,08,28,17,24,3.70
2015,08,28,17,25,1.20
2015,08,28,17,26,0.00
2015,08,28,17,27,2.30
2015,08,28,17,28,2.60
2015,08,28,17,29,2.00
2015,08,28,17,30,1.50
2015,08,28,17,31,4.00
2015,08,28,17,32,3.00
2015,08,28,17,33,1.90
2015,08,28,17,34,3.10
2015,08,28,17,35,0.30
2015,08,28,17,36,0.80
2015,08,28,17,37,2.00
2015,08,28,17,38,2.50
2015,08,28,17,39,1.80
2015,08,28,17,40,2.00
2015,08,28,17,41,1.80
2015,08,28,17,42,1.70
2015,08,28,17,43,2.60
2015,08,28,17,44,2.00
2015,08,28,17,45,1.50
2015,08,28,17,46,7.00
2015,08,28,17,47,7.00
2015,08,28,17,48,7.40
2015,08,28,17,49,2.90
2015,08,28,17,50,6.20
2015,08,28,17,51,4.20
2015,08,28,17,52,5.60
2015,08,28,17,53,3.90
2015,08,28,17,54,3.10
2015,08,28,17,55,3.80
2015,08,28,17,56,5.60
2015,08,28,17,57,4.10
2015,08,28,17,58,8.40
2015,08,28,17,59,7.50
2015,08,28,18,00,4.70
2015,08,28,18,01,6.70
2015,08,28,18,02,2.50